| time (UTC) | temp C | wind direction | speed KPH | gust KPH | rain 1hr cm | rain 24hr cm | rain mn cm | humidity % | barometer mb |
| 20260507034029 | 6 | 136 | 0.0 | 1.6 | 0.03 | 5.66 | 5.64 | 99 | 1009.1 |
| 20260507033028 | 6 | 136 | 1.6 | 1.6 | 0.03 | 5.69 | 5.64 | 99 | 1009.1 |
| 20260507032029 | 6 | 136 | 1.6 | 1.6 | 0.05 | 5.71 | 5.64 | 99 | 1009.1 |
| 20260507031029 | 6 | 136 | 1.6 | 1.6 | 0.03 | 5.92 | 5.61 | 99 | 1009.4 |
| 20260507030029 | 6 | 136 | 1.6 | 1.6 | 0.05 | 5.92 | 5.61 | 99 | 1009.5 |
| 20260507025029 | 6 | 136 | 0.0 | 1.6 | 0.05 | 5.92 | 5.61 | 99 | 1009.6 |
| 20260507024049 | 6 | 136 | 1.6 | 1.6 | 0.08 | 5.92 | 5.61 | 99 | 1009.5 |
| 20260507023049 | 6 | 136 | 0.0 | 1.6 | 0.08 | 5.92 | 5.61 | 99 | 1009.5 |
| 20260507022030 | 6 | 136 | 1.6 | 1.6 | 0.10 | 5.89 | 5.59 | 99 | 1009.5 |
| 20260507021030 | 6 | 136 | 0.0 | 1.6 | 0.13 | 5.89 | 5.59 | 99 | 1009.5 |
| 20260507020030 | 6 | 136 | 0.0 | 1.6 | 0.15 | 5.89 | 5.56 | 99 | 1009.7 |
| 20260507015030 | 6 | 136 | 0.0 | 1.6 | 0.18 | 5.87 | 5.56 | 99 | 1009.7 |
| 20260507014030 | 6 | 135 | 0.0 | 1.6 | 0.18 | 5.87 | 5.54 | 99 | 1009.6 |
| 20260507013030 | 6 | 135 | 0.0 | 1.6 | 0.15 | 5.82 | 5.51 | 99 | 1009.6 |
| 20260507012030 | 6 | 136 | 0.0 | 0.0 | 0.15 | 5.82 | 5.49 | 99 | 1009.4 |
| 20260507011031 | 6 | 135 | 0.0 | 0.0 | 0.13 | 5.77 | 5.46 | 99 | 1009.5 |
| 20260507010031 | 6 | 136 | 1.6 | 1.6 | 0.13 | 5.74 | 5.44 | 99 | 1009.4 |
| 20260507005051 | 6 | 136 | 0.0 | 1.6 | 0.13 | 5.71 | 5.38 | 99 | 1009.2 |
| 20260507004031 | 6 | 135 | 0.0 | 1.6 | 0.15 | 5.66 | 5.36 | 99 | 1009.2 |
| 20260507003032 | 6 | 136 | 0.0 | 1.6 | 0.20 | 5.66 | 5.36 | 99 | 1009.1 |
| 20260507002031 | 6 | 136 | 1.6 | 1.6 | 0.20 | 5.66 | 5.33 | 99 | 1009.0 |
| 20260507001032 | 6 | 135 | 0.0 | 1.6 | 0.20 | 5.64 | 5.33 | 99 | 1008.7 |
| 20260507000051 | 6 | 137 | 1.6 | 4.8 | 0.20 | 5.61 | 5.31 | 99 | 1008.5 |
| 20260506235032 | 6 | 38 | 1.6 | 8.0 | 0.18 | 5.59 | 5.28 | 99 | 1008.3 |
| 20260506234017 | 6 | 136 | 1.6 | 3.2 | 0.15 | 5.51 | 5.21 | 99 | 1008.3 |
| 20260506233037 | 6 | 137 | 1.6 | 1.6 | 0.10 | 5.46 | 5.16 | 99 | 1008.3 |
| 20260506232017 | 6 | 136 | 0.0 | 1.6 | 0.13 | 5.44 | 5.13 | 99 | 1007.9 |
| 20260506231018 | 6 | 126 | 1.6 | 3.2 | 0.13 | 5.44 | 5.13 | 99 | 1007.9 |
| 20260506230018 | 6 | 8 | 3.2 | 4.8 | 0.13 | 5.41 | 5.11 | 99 | 1007.8 |
| 20260506225038 | 6 | 345 | 3.2 | 4.8 | 0.10 | 5.41 | 5.08 | 99 | 1007.7 |
| 20260506224038 | 6 | 341 | 3.2 | 4.8 | 0.08 | 5.36 | 5.05 | 99 | 1007.6 |
| 20260506223113 | 6 | 325 | 1.6 | 3.2 | 0.08 | 5.33 | 5.03 | 99 | 1007.6 |
| 20260506222018 | 6 | 342 | 1.6 | 4.8 | 0.05 | 5.33 | 5.00 | 99 | 1007.3 |
| 20260506221018 | 6 | 334 | 3.2 | 6.4 | 0.05 | 5.31 | 5.00 | 99 | 1007.2 |
| 20260506220018 | 6 | 14 | 3.2 | 4.8 | 0.05 | 5.31 | 5.00 | 99 | 1007.0 |
| 20260506215018 | 6 | 349 | 1.6 | 3.2 | 0.05 | 5.31 | 5.00 | 99 | 1006.8 |
| 20260506214019 | 6 | 345 | 1.6 | 4.8 | 0.05 | 5.28 | 4.98 | 99 | 1006.7 |
| 20260506213054 | 7 | 315 | 1.6 | 6.4 | 0.05 | 5.28 | 4.98 | 99 | 1006.7 |
| 20260506212039 | 7 | 330 | 3.2 | 4.8 | 0.05 | 5.28 | 4.95 | 99 | 1006.8 |
| 20260506211019 | 7 | 11 | 0.0 | 1.6 | 0.08 | 5.26 | 4.95 | 99 | 1006.7 |
| 20260506210019 | 6 | 323 | 1.6 | 4.8 | 0.10 | 5.26 | 4.95 | 99 | 1006.6 |
| 20260506205019 | 6 | 350 | 3.2 | 3.2 | 0.15 | 5.26 | 4.93 | 99 | 1006.6 |
| 20260506204019 | 6 | 340 | 3.2 | 8.0 | 0.20 | 5.23 | 4.93 | 99 | 1006.5 |
| 20260506203019 | 6 | 352 | 3.2 | 6.4 | 0.23 | 5.23 | 4.93 | 99 | 1006.6 |
| 20260506202020 | 6 | 342 | 3.2 | 4.8 | 0.25 | 5.23 | 4.90 | 99 | 1006.6 |
| 20260506201019 | 6 | 29 | 3.2 | 6.4 | 0.30 | 5.21 | 4.88 | 99 | 1006.5 |
| 20260506200020 | 6 | 61 | 1.6 | 6.4 | 0.36 | 5.18 | 4.85 | 99 | 1006.6 |
| 20260506195019 | 6 | 88 | 3.2 | 8.0 | 0.48 | 5.16 | 4.78 | 99 | 1006.8 |
| 20260506194020 | 6 | 97 | 4.8 | 8.0 | 0.53 | 5.46 | 4.72 | 99 | 1006.8 |
| 20260506193040 | 6 | 342 | 3.2 | 4.8 | 0.61 | 5.44 | 4.70 | 99 | 1006.8 |
| 20260506192020 | 6 | 342 | 1.6 | 6.4 | 0.66 | 5.38 | 4.65 | 99 | 1006.7 |
| 20260506191020 | 6 | 350 | 1.6 | 4.8 | 0.66 | 5.33 | 4.57 | 99 | 1006.9 |
| 20260506190018 | 6 | 1 | 1.6 | 8.0 | 0.69 | 5.26 | 4.50 | 99 | 1006.9 |
| 20260506185021 | 6 | 72 | 1.6 | 4.8 | 0.61 | 5.05 | 4.29 | 99 | 1006.8 |
| 20260506184021 | 6 | 121 | 3.2 | 4.8 | 0.74 | 4.93 | 4.19 | 99 | 1007.0 |
| 20260506183021 | 6 | 27 | 4.8 | 6.4 | 0.71 | 4.83 | 4.09 | 99 | 1006.7 |
| 20260506182021 | 6 | 26 | 4.8 | 8.0 | 0.74 | 4.72 | 3.99 | 99 | 1006.8 |
| 20260506181021 | 6 | 25 | 4.8 | 6.4 | 0.79 | 4.67 | 3.91 | 99 | 1006.9 |
| 20260506180021 | 6 | 13 | 4.8 | 8.0 | 0.81 | 4.57 | 3.81 | 99 | 1006.9 |
| 20260506175044 | 7 | 15 | 4.8 | 9.7 | 0.79 | 4.45 | 3.68 | 99 | 1007.0 |
| 20260506174019 | 7 | 3 | 3.2 | 9.7 | 0.66 | 4.22 | 3.45 | 99 | 1006.6 |
| 20260506173041 | 7 | 97 | 1.6 | 1.6 | 0.64 | 4.14 | 3.35 | 99 | 1006.6 |
| 20260506172021 | 7 | 16 | 1.6 | 3.2 | 0.71 | 4.01 | 3.25 | 99 | 1006.8 |
| 20260506171021 | 7 | 18 | 1.6 | 3.2 | 0.71 | 3.89 | 3.12 | 99 | 1007.1 |
| 20260506170022 | 7 | 21 | 1.6 | 4.8 | 0.71 | 3.76 | 3.00 | 99 | 1007.2 |
| 20260506165102 | 7 | 18 | 3.2 | 4.8 | 0.76 | 3.66 | 2.90 | 99 | 1007.3 |
| 20260506164022 | 7 | 37 | 3.2 | 6.4 | 0.94 | 3.56 | 2.79 | 99 | 1007.4 |
| 20260506163102 | 7 | 11 | 3.2 | 3.2 | 1.02 | 3.48 | 2.72 | 99 | 1007.4 |
| 20260506162022 | 7 | 347 | 1.6 | 3.2 | 0.99 | 3.30 | 2.54 | 99 | 1007.1 |
| 20260506161022 | 7 | 21 | 1.6 | 3.2 | 1.04 | 3.17 | 2.41 | 99 | 1007.3 |
| 20260506160022 | 7 | 25 | 1.6 | 3.2 | 1.09 | 3.07 | 2.31 | 98 | 1007.4 |
| 20260506155023 | 7 | 6 | 1.6 | 3.2 | 1.09 | 2.90 | 2.13 | 98 | 1007.6 |
| 20260506154023 | 7 | 13 | 3.2 | 4.8 | 1.02 | 2.62 | 1.85 | 98 | 1007.5 |
| 20260506153103 | 7 | 10 | 1.6 | 3.2 | 0.97 | 2.46 | 1.70 | 98 | 1007.7 |
| 20260506152023 | 8 | 333 | 3.2 | 4.8 | 0.91 | 2.31 | 1.55 | 98 | 1007.8 |
| 20260506151023 | 8 | 343 | 3.2 | 3.2 | 0.79 | 2.13 | 1.37 | 98 | 1008.0 |
| 20260506150024 | 8 | 340 | 3.2 | 4.8 | 0.69 | 1.98 | 1.22 | 98 | 1008.3 |
| 20260506145024 | 8 | 3 | 1.6 | 3.2 | 0.56 | 1.80 | 1.04 | 98 | 1008.5 |
| 20260506144024 | 8 | 44 | 0.0 | 1.6 | 0.41 | 1.60 | 0.84 | 97 | 1008.4 |